Wetbulb
66.56 68.45 69.84 66.40 57.70 56.95 50.65 51.13 56.18 55.00 55.93 59.53 59.93 58.67 56.76 56.88 53.83 50.88 65.14 67.15 67.34 66.70 67.57 68.30 68.53 67.57 66.75 67.33 67.40 67.96 68.88 68.66 68.86 68.93 69.08 68.81 69.10 69.20 69.03 69.10 69.30 70.06 70.29 70.08 69.68 69.56 69.40 69.15 68.95
68.02 67.49 67.18 64.13 55.50 50.91 49.41 53.57 54.47 56.24 58.72 60.15 59.15 58.92 57.00 53.07 59.48 61.14 62.75 66.96 67.79 68.05 68.76 68.68 66.77 66.52 66.80 66.73 66.92 67.37 68.17 68.22 68.71 68.42 68.79 69.58 69.90 69.91 69.84 69.71 69.33 69.25 69.59 69.41 69.08 68.62 67.90 67.50 67.26
67.63 66.84 63.25 59.59 55.50 50.75 50.40 53.07 54.30 56.94 59.15 58.71 56.73 59.73 58.08 55.29 59.82 61.13 63.89 66.81 67.87 68.16 67.66 66.43 65.89 65.53 64.90 65.48 66.00 66.51 66.83 67.82 68.19 69.13 69.65 69.72 69.52 69.27 69.16 69.03 68.76 68.78 69.27 69.47 69.47 69.08 68.18 67.63 67.48
66.65 66.11 63.77 55.93 51.99 52.11 54.12 54.80 55.64 56.34 57.59 58.43 59.30 55.00 57.85 59.71 60.13 61.84 66.27 67.23 67.02 66.86 66.83 65.19 65.16 64.06 63.62 64.08 64.96 64.95 65.39 66.06 67.94 68.38 68.21 68.50 67.68 67.30 67.07 66.91 66.89 67.39 67.79 68.21 68.49 68.45 68.50 68.39 68.16
68.15 64.15 57.85 53.29 51.49 53.36 56.09 57.70 57.22 56.08 56.52 57.17 58.02 54.57 55.61 58.50 62.81 65.62 65.29 64.10 64.08 65.02 66.07 64.58 63.45 62.12 62.27 62.71 63.11 63.75 64.08 65.16 66.23 65.96 64.94 65.04 65.04 64.70 64.20 64.36 64.36 64.50 64.89 65.19 66.13 67.02 67.31 67.32 67.03
62.14 61.85 54.84 51.89 49.10 52.46 55.21 58.16 57.64 56.61 57.31 56.67 57.02 55.98 55.58 59.19 63.15 63.50 62.99 62.36 63.37 63.53 65.46 63.97 61.29 61.01 61.12 61.33 61.76 61.81 62.24 63.04 63.11 62.72 62.63 62.29 61.87 61.46 61.72 61.88 62.11 62.39 62.74 63.00 62.99 62.92 64.27 63.99 63.85
59.42 59.40 54.32 53.39 51.11 51.77 54.62 57.26 55.95 56.86 56.66 55.88 58.86 53.56 56.08 59.55 62.26 62.08 61.57 62.16 63.21 64.62 65.02 63.15 61.92 60.71 59.74 59.99 60.06 59.65 60.08 60.51 60.13 59.65 59.07 59.02 58.81 58.90 58.76 59.89 60.31 60.61 60.76 60.99 60.54 59.93 60.18 60.58 60.71
63.31 61.46 54.31 54.69 52.23 51.48 55.82 54.35 56.48 57.36 55.68 58.17 59.53 53.05 53.73 59.95 61.82 61.58 61.26 60.48 61.33 61.98 61.95 61.58 61.06 60.33 60.21 60.41 58.46 58.41 58.30 58.31 58.50 57.83 57.20 58.72 59.70 59.92 57.17 59.59 58.36 58.59 58.64 58.60 58.35 57.84 57.30 57.89 59.66
61.81 56.21 53.46 53.88 54.40 54.06 54.91 54.51 55.34 56.38 55.44 55.53 56.18 57.44 58.89 61.03 60.74 60.19 59.07 58.57 58.97 59.40 60.36 60.62 59.88 59.42 58.68 59.13 59.20 58.99 57.82 57.73 59.52 58.87 57.12 59.10 56.54 55.86 55.65 55.39 56.13 56.27 55.92 55.81 55.95 56.14 57.41 59.18 60.21
59.17 56.91 54.74 57.95 57.97 55.58 56.33 57.15 55.11 54.77 54.47 53.43 53.33 55.50 59.89 59.65 59.68 58.07 56.62 55.80 55.75 56.61 58.43 59.48 59.06 57.92 57.11 56.36 59.32 59.48 58.31 58.06 58.14 57.78 56.98 55.70 56.32 54.68 54.30 55.43 56.40 56.46 57.75 57.62 57.23 57.60 59.34 60.59 60.13
58.08 56.29 56.72 56.76 57.96 59.15 57.05 56.41 56.91 55.84 53.94 54.99 53.99 55.56 58.18 58.74 58.54 56.92 54.95 54.47 54.15 56.04 57.45 57.47 58.14 57.53 56.06 56.31 57.11 57.13 57.11 56.83 56.46 57.07 56.06 56.35 55.41 55.70 55.00 54.96 55.16 55.77 57.36 55.25 57.41 58.62 59.19 60.46 60.68
55.18 56.85 57.56 57.45 58.46 57.82 56.27 57.41 54.14 56.84 56.98 57.48 57.71 58.55 58.57 57.87 57.13 55.42 53.64 53.27 54.23 55.19 56.05 56.99 56.92 56.78 56.63 54.79 55.33 55.24 55.03 54.94 54.95 56.01 56.39 56.11 55.41 55.96 56.02 55.45 55.88 55.91 55.71 55.89 57.13 57.91 59.15 60.05 60.74
56.10 56.09 57.52 57.96 57.44 57.64 56.92 55.16 55.29 55.85 55.94 57.60 58.25 58.26 58.00 57.62 56.06 54.76 53.49 53.92 54.96 54.79 55.89 56.28 56.58 56.84 56.41 55.20 54.78 54.95 54.58 55.02 55.85 56.28 57.50 57.03 56.42 56.63 56.90 56.99 56.91 56.67 56.71 56.10 55.91 57.26 57.82 58.47 59.24
56.95 56.60 56.52 56.72 56.11 55.46 54.19 53.55 55.50 54.11 55.83 55.44 56.11 56.96 57.67 56.55 55.16 54.12 53.38 53.49 54.35 55.25 55.72 56.65 56.35 57.07 56.55 55.31 55.66 55.27 55.59 56.11 56.38 57.05 57.63 58.23 57.82 57.52 57.13 57.02 56.93 57.04 57.38 57.20 56.63 55.86 56.38 57.27 58.12
56.66 53.18 54.49 54.87 55.36 53.40 55.26 51.70 52.79 55.24 54.81 53.39 54.36 56.24 56.39 55.44 54.33 53.33 53.70 53.41 54.15 55.42 55.94 56.35 56.64 57.27 56.95 56.18 55.90 55.77 55.68 56.42 56.56 57.04 58.13 57.97 58.07 58.09 57.52 56.79 56.56 56.97 57.51 57.94 57.53 56.99 56.42 55.51 56.67
54.53 54.99 51.00 53.46 53.65 52.35 51.80 51.76 52.06 54.21 53.61 53.25 53.95 53.98 53.89 54.36 53.55 53.69 54.32 54.30 54.80 55.36 55.51 56.62 55.65 56.90 57.04 56.78 56.49 56.06 56.72 56.75 56.80 57.16 57.44 57.82 57.58 57.95 57.71 56.95 56.93 57.56 57.43 57.12 56.68 56.49 55.75 55.22 54.48
52.15 49.74 49.80 50.98 53.66 52.33 51.65 48.52 52.39 54.94 54.09 53.90 53.42 53.26 53.09 53.60 53.54 53.86 54.49 54.64 54.84 55.62 56.09 56.43 57.33 56.79 56.98 57.21 57.14 57.33 57.50 57.05 57.44 57.89 57.47 57.40 57.34 57.62 57.63 57.26 57.63 58.04 57.15 56.89 56.41 55.95 55.80 54.84 54.41
48.49 49.33 49.19 50.09 51.99 49.73 50.98 49.93 50.84 53.69 53.66 54.33 54.09 54.03 53.48 53.15 52.83 53.81 54.43 54.99 54.87 55.82 56.48 56.31 56.18 57.22 57.49 57.17 57.25 56.90 57.14 57.20 58.74 58.58 58.00 57.65 57.60 57.24 57.95 57.59 57.78 57.56 56.23 55.57 55.29 54.87 55.34 54.90 54.14
51.99 49.91 48.88 52.02 51.60 50.90 49.37 49.22 50.47 51.96 53.00 53.97 54.41 54.16 53.70 53.48 54.42 54.17 54.66 54.87 54.54 55.21 55.66 55.06 55.17 56.70 56.70 55.60 55.06 55.14 54.73 56.42 57.63 58.20 57.72 57.39 57.64 57.70 57.63 56.70 56.18 55.64 54.18 53.39 53.47 52.85 52.75 52.60 54.04
49.06 47.78 47.75 49.06 49.45 49.22 49.04 48.49 50.95 51.46 51.53 53.20 53.57 53.87 53.81 53.81 53.37 53.18 53.99 54.72 54.56 54.29 54.95 54.86 54.91 56.35 56.20 55.62 55.66 56.43 56.09 57.39 57.76 57.93 57.15 57.02 56.58 56.27 55.48 54.69 53.39 52.40 51.41 51.48 51.50 50.86 49.84 50.25 52.33
47.56 47.20 47.23 45.89 47.59 48.87 46.93 45.72 47.74 50.53 51.87 52.18 53.04 54.25 54.33 53.65 52.94 52.45 52.97 54.28 54.69 54.11 54.53 54.61 54.98 55.52 55.86 55.59 55.45 55.47 56.67 56.72 56.10 56.23 55.78 54.90 54.44 53.65 52.56 51.43 50.80 50.46 50.15 49.05 49.42 49.06 48.58 46.43 48.72
44.70 48.32 48.08 45.55 45.63 42.19 45.86 40.28 45.31 47.28 48.08 49.92 51.31 52.60 53.53 53.61 53.57 52.96 52.91 53.51 54.45 54.71 55.56 55.04 55.07 55.31 55.46 56.67 55.43 54.86 53.82 53.37 56.29 55.65 54.36 52.94 51.75 50.59 49.95 49.44 49.22 48.94 48.44 48.02 47.77 47.78 47.51 46.63 44.38
45.19 47.60 47.07 46.08 44.28 42.83 42.99 40.95 44.70 45.74 45.17 47.32 50.03 51.46 53.04 54.10 53.61 53.04 53.06 53.95 55.03 55.52 55.14 55.38 55.50 55.58 55.98 56.53 56.09 55.07 54.53 55.57 56.16 54.13 52.02 51.19 50.27 49.44 48.27 48.19 48.06 47.62 47.76 47.79 47.53 47.15 46.22 45.75 44.23
47.19 46.06 45.20 44.80 43.57 38.63 42.00 41.24 42.51 44.27 45.22 47.15 49.86 50.85 52.09 53.37 53.77 53.61 53.90 54.38 54.54 55.83 55.38 55.61 55.34 54.90 56.11 56.17 56.29 55.85 55.12 55.41 54.39 52.94 51.50 51.07 50.77 49.84 48.14 47.26 47.87 48.02 47.11 46.38 46.04 46.39 45.93 44.89 44.68
46.35 45.59 40.86 37.76 37.44 37.38 40.74 39.57 42.95 46.54 47.97 48.59 49.06 50.48 51.58 53.04 53.48 53.32 52.30 52.73 53.99 54.34 55.18 55.24 55.23 54.39 55.58 55.84 55.78 55.87 56.36 56.18 54.82 52.84 51.48 48.97 49.31 49.73 48.81 47.09 46.86 46.34 46.14 45.50 44.99 44.79 44.89 45.01 43.53
44.68 45.12 42.11 33.80 35.87 37.72 40.58 37.94 43.59 47.62 49.06 49.65 50.24 51.17 51.08 51.51 52.33 52.56 53.36 53.61 54.04 54.72 55.51 55.41 54.89 54.27 55.07 55.38 55.69 56.11 56.55 55.18 54.01 52.14 50.70 50.66 50.20 49.33 47.73 46.54 45.89 45.51 45.09 44.76 44.30 43.81 43.62 43.94 42.80
44.02 41.14 45.52 39.91 39.47 37.88 40.57 42.66 46.37 47.35 48.19 49.51 50.01 51.21 51.53 51.01 51.49 52.25 53.65 54.62 54.48 54.78 55.52 55.83 55.11 54.63 54.59 55.11 55.47 55.00 54.50 53.14 51.39 50.20 49.83 49.80 49.51 47.72 46.65 45.51 45.34 45.15 44.61 43.77 42.91 42.76 42.29 42.14 42.10
45.29 46.65 41.57 43.86 36.53 32.92 38.48 38.84 41.70 44.09 45.74 48.08 48.90 50.05 51.30 52.23 50.91 51.55 52.17 53.53 54.43 55.20 55.61 56.24 55.95 54.79 54.35 54.55 54.21 53.03 52.23 51.39 50.40 49.34 48.41 48.06 48.35 46.59 44.91 44.78 44.74 44.28 44.03 43.40 42.69 42.05 42.08 41.25 41.28
43.27 42.56 42.53 43.93 40.74 35.48 34.33 38.47 45.57 45.79 47.13 47.75 48.72 49.57 50.26 50.86 51.14 51.19 52.02 52.15 52.91 54.12 54.68 54.79 54.80 53.98 53.32 53.10 52.44 51.69 50.49 49.55 48.39 48.41 47.78 46.89 46.28 44.87 44.13 43.70 43.54 43.34 43.13 43.20 42.59 41.91 41.57 40.47 40.22
44.44 43.81 44.42 41.41 37.35 39.01 37.73 37.89 45.39 47.87 47.80 48.15 47.96 48.85 49.57 49.51 49.28 49.84 50.16 50.15 50.31 50.97 52.50 53.12 53.47 52.72 52.49 51.58 50.73 49.72 49.24 48.00 47.11 46.91 46.25 46.11 44.38 44.79 43.89 43.56 43.12 42.78 42.78 42.95 42.11 41.25 40.94 40.41 39.72
MSLP
1014.10 1013.62 1013.06 1012.05 1011.71 1012.31 1014.43 1017.00 1017.62 1017.99 1018.60 1019.49 1019.62 1019.39 1020.57 1021.67 1022.00 1022.77 1024.04 1024.37 1024.09 1023.90 1023.95 1023.95 1024.72 1024.56 1024.37 1024.23 1023.97 1023.61 1023.40 1023.19 1022.98 1022.85 1022.73 1022.57 1022.45 1022.26 1022.15 1022.00 1021.78 1021.61 1021.47 1021.35 1021.30 1021.15 1020.91 1020.79 1020.65
1013.53 1013.21 1012.60 1012.07 1011.68 1013.04 1016.55 1017.92 1018.04 1018.84 1019.69 1020.16 1020.41 1020.56 1021.16 1022.82 1022.91 1023.43 1023.89 1024.57 1024.55 1024.10 1024.38 1024.48 1025.07 1024.94 1024.78 1024.56 1024.31 1024.05 1023.75 1023.47 1023.20 1023.04 1022.90 1022.81 1022.72 1022.58 1022.34 1022.27 1022.17 1022.02 1021.79 1021.58 1021.47 1021.33 1021.17 1020.96 1020.76
1013.55 1013.30 1012.36 1012.76 1013.74 1014.75 1017.08 1019.09 1019.85 1020.43 1020.60 1020.28 1020.94 1021.23 1021.82 1023.05 1023.67 1024.03 1024.76 1024.63 1024.29 1024.40 1024.99 1025.26 1025.40 1025.23 1024.99 1024.80 1024.59 1024.35 1024.14 1023.86 1023.52 1023.34 1023.13 1023.00 1022.98 1023.00 1022.82 1022.71 1022.54 1022.33 1022.15 1021.89 1021.67 1021.55 1021.46 1021.35 1021.16
1013.26 1012.89 1013.18 1013.37 1015.48 1017.66 1018.16 1019.83 1020.71 1020.85 1021.07 1020.95 1020.76 1021.71 1023.09 1023.96 1023.88 1024.31 1024.57 1024.44 1024.71 1025.03 1025.28 1025.81 1025.80 1025.59 1025.38 1025.18 1024.93 1024.69 1024.48 1024.20 1023.89 1023.69 1023.56 1023.45 1023.45 1023.39 1023.22 1023.13 1022.98 1022.79 1022.61 1022.36 1022.12 1021.93 1021.75 1021.53 1021.29
1013.40 1012.77 1012.78 1014.68 1017.09 1018.43 1019.44 1020.23 1020.75 1020.55 1020.80 1020.91 1020.89 1021.73 1022.80 1023.85 1024.26 1024.32 1024.37 1024.70 1025.07 1025.32 1025.61 1025.88 1026.11 1025.94 1025.76 1025.56 1025.33 1025.09 1024.80 1024.55 1024.31 1024.17 1024.15 1023.99 1023.99 1023.82 1023.63 1023.54 1023.33 1023.13 1022.97 1022.74 1022.51 1022.26 1021.98 1021.76 1021.46
1012.82 1013.01 1012.57 1014.51 1017.97 1019.67 1020.30 1020.41 1020.56 1020.60 1020.75 1021.11 1020.97 1021.66 1022.85 1023.85 1023.99 1024.25 1024.64 1025.12 1025.41 1025.76 1025.81 1026.03 1026.29 1026.35 1026.17 1025.98 1025.75 1025.57 1025.32 1025.14 1024.97 1024.80 1024.73 1024.55 1024.44 1024.25 1024.01 1023.85 1023.70 1023.51 1023.38 1023.18 1022.97 1022.68 1022.34 1022.07 1021.74
1012.54 1012.47 1012.94 1014.89 1017.70 1019.37 1020.22 1020.90 1020.66 1020.45 1020.67 1020.94 1021.16 1021.53 1023.02 1023.63 1024.20 1024.55 1024.78 1024.99 1025.13 1025.47 1025.70 1025.96 1025.99 1026.22 1026.31 1026.30 1026.12 1025.89 1025.66 1025.50 1025.29 1025.23 1025.15 1025.02 1024.84 1024.71 1024.54 1024.37 1024.15 1023.92 1023.62 1023.35 1023.11 1022.96 1022.66 1022.35 1022.00
1013.20 1012.86 1013.41 1014.72 1016.52 1018.34 1020.09 1020.73 1020.67 1020.50 1020.85 1021.92 1021.45 1021.33 1022.35 1023.28 1024.30 1024.47 1024.65 1025.01 1025.26 1025.61 1025.77 1025.99 1026.07 1026.22 1026.19 1026.04 1026.46 1026.25 1026.05 1025.90 1025.64 1025.61 1025.40 1025.09 1024.88 1024.72 1024.85 1024.46 1024.65 1024.38 1024.11 1023.80 1023.49 1023.20 1022.79 1022.42 1022.06
1014.00 1012.77 1012.92 1014.16 1015.40 1017.80 1019.97 1019.99 1020.89 1021.13 1021.29 1021.69 1022.05 1021.64 1021.96 1023.60 1024.26 1024.41 1024.64 1025.04 1025.37 1025.72 1025.86 1026.04 1026.14 1026.25 1026.23 1026.16 1026.35 1026.18 1026.17 1025.96 1025.64 1025.42 1025.52 1024.93 1024.82 1024.66 1024.60 1025.29 1025.00 1024.78 1024.44 1024.20 1023.83 1023.42 1022.88 1022.31 1021.79
1013.80 1012.59 1013.48 1014.59 1015.67 1017.54 1018.99 1019.14 1020.28 1020.60 1020.90 1021.42 1022.09 1022.80 1023.11 1023.79 1024.05 1024.12 1024.21 1024.74 1025.21 1025.60 1026.00 1026.11 1026.28 1026.39 1026.31 1026.11 1026.29 1026.23 1026.06 1026.00 1025.82 1025.63 1025.43 1025.15 1025.32 1025.31 1024.98 1025.11 1025.00 1024.69 1024.27 1023.90 1023.62 1023.37 1022.66 1022.00 1021.33
1014.73 1013.91 1015.55 1016.30 1016.93 1017.64 1018.56 1019.10 1019.78 1019.71 1019.86 1020.35 1021.19 1022.48 1023.18 1023.58 1023.86 1024.09 1024.41 1024.71 1025.13 1025.89 1026.06 1026.13 1026.74 1026.81 1026.47 1026.58 1026.19 1026.03 1026.04 1026.05 1026.12 1026.18 1025.87 1025.95 1025.47 1025.25 1024.91 1024.64 1024.48 1024.29 1024.20 1023.64 1023.17 1022.99 1022.73 1022.70 1022.26
1015.40 1016.39 1016.46 1017.30 1017.93 1018.23 1018.64 1019.15 1019.71 1019.28 1019.22 1020.08 1021.02 1022.35 1023.02 1023.36 1023.60 1023.97 1024.35 1024.85 1025.22 1025.66 1026.26 1026.52 1026.78 1027.07 1027.08 1026.52 1026.42 1026.33 1026.33 1026.41 1026.40 1026.67 1026.29 1026.00 1025.71 1025.60 1025.37 1025.02 1024.74 1024.45 1024.30 1024.14 1023.68 1023.32 1023.23 1022.88 1022.63
1015.91 1017.04 1017.53 1018.10 1018.51 1018.65 1019.10 1019.17 1019.06 1019.46 1020.27 1020.82 1021.63 1022.44 1022.75 1023.09 1023.55 1024.05 1024.40 1024.90 1025.32 1025.78 1026.34 1026.58 1026.85 1027.13 1027.16 1027.01 1026.96 1026.99 1026.80 1026.91 1026.86 1026.89 1027.06 1026.54 1026.28 1026.20 1025.85 1025.65 1025.21 1025.00 1024.69 1024.38 1024.15 1023.75 1023.42 1023.03 1022.81
1016.50 1017.38 1018.14 1018.65 1018.97 1019.41 1019.27 1019.49 1019.41 1020.10 1020.63 1021.31 1021.88 1022.10 1022.40 1022.84 1023.26 1024.02 1024.44 1024.85 1025.28 1025.84 1026.51 1026.81 1026.99 1027.27 1027.29 1027.35 1027.45 1027.34 1027.25 1027.27 1027.20 1027.38 1027.54 1027.40 1027.00 1026.79 1026.44 1026.14 1025.82 1025.47 1025.30 1025.06 1024.77 1024.44 1023.75 1023.28 1023.00
1016.93 1017.16 1018.18 1018.53 1018.82 1019.09 1019.15 1019.42 1018.88 1019.90 1020.90 1021.30 1021.67 1021.84 1022.08 1022.66 1023.18 1023.62 1024.15 1024.66 1025.16 1025.82 1026.47 1026.88 1027.23 1027.43 1027.42 1027.52 1027.50 1027.46 1027.44 1027.43 1027.51 1027.70 1027.97 1027.83 1027.48 1027.36 1026.91 1026.75 1026.52 1026.26 1025.96 1025.56 1025.07 1024.73 1024.15 1023.62 1023.12
1016.25 1016.50 1016.54 1018.00 1018.50 1018.99 1019.18 1016.90 1018.81 1019.89 1020.25 1020.73 1021.23 1021.55 1021.91 1022.40 1022.88 1023.37 1024.03 1024.44 1024.99 1025.56 1026.35 1026.73 1026.79 1027.29 1027.45 1027.61 1027.51 1027.51 1027.70 1027.56 1027.64 1027.69 1027.83 1028.00 1027.84 1027.60 1027.18 1026.92 1026.98 1026.81 1026.33 1026.08 1025.61 1025.06 1024.51 1024.07 1023.48
1015.66 1014.72 1015.42 1016.97 1017.81 1017.87 1018.20 1016.54 1017.87 1019.16 1019.55 1019.79 1020.49 1020.91 1021.35 1021.84 1022.62 1023.15 1023.95 1024.27 1024.89 1025.57 1026.08 1026.48 1026.83 1027.16 1027.42 1027.74 1027.67 1027.83 1028.04 1027.69 1027.77 1027.80 1027.83 1028.24 1028.09 1027.99 1027.50 1027.28 1027.27 1026.98 1026.53 1026.42 1026.22 1025.70 1025.24 1024.44 1023.87
1013.57 1014.13 1015.13 1015.26 1016.61 1017.49 1016.97 1016.52 1017.31 1018.36 1018.74 1018.75 1019.44 1019.90 1020.55 1021.08 1021.83 1022.74 1023.58 1024.18 1024.66 1025.35 1025.86 1026.23 1026.54 1026.84 1027.30 1027.62 1027.84 1027.60 1027.66 1027.75 1027.83 1027.84 1028.01 1028.30 1028.17 1028.11 1027.70 1027.35 1027.50 1027.10 1026.89 1026.79 1026.89 1026.54 1025.75 1025.03 1024.62
1013.11 1013.68 1014.08 1014.92 1016.01 1016.33 1016.09 1015.74 1015.76 1017.16 1017.77 1017.86 1018.30 1018.84 1019.55 1020.30 1021.14 1022.26 1023.46 1024.15 1024.49 1025.14 1025.63 1026.06 1026.39 1026.83 1027.13 1027.22 1027.05 1027.01 1027.07 1027.51 1027.65 1027.91 1028.41 1028.44 1028.44 1028.44 1028.26 1027.91 1027.93 1027.68 1027.45 1027.61 1027.54 1026.93 1026.06 1025.19 1024.96
1013.44 1013.43 1013.84 1015.19 1016.10 1016.14 1015.25 1014.93 1014.83 1015.54 1016.49 1016.87 1017.31 1017.94 1018.64 1019.66 1020.57 1021.72 1022.88 1023.66 1024.16 1024.61 1025.15 1025.63 1025.99 1026.46 1026.68 1026.59 1026.66 1026.70 1026.95 1027.40 1027.80 1028.27 1028.65 1028.67 1028.67 1028.65 1028.49 1028.66 1028.52 1028.68 1028.04 1027.93 1027.63 1027.46 1026.66 1025.77 1025.52
1013.80 1013.49 1013.91 1014.26 1015.75 1015.93 1015.41 1013.66 1013.34 1013.84 1015.33 1016.13 1016.58 1016.97 1017.78 1018.69 1019.82 1021.16 1022.14 1022.92 1023.68 1024.09 1024.65 1025.08 1025.51 1025.88 1026.17 1026.37 1026.79 1027.23 1027.56 1027.81 1027.90 1028.26 1028.51 1029.13 1029.26 1029.33 1029.26 1029.16 1029.15 1028.90 1028.54 1028.30 1028.30 1027.99 1027.43 1026.64 1025.83
1014.07 1014.36 1014.49 1014.90 1015.06 1014.38 1015.09 1012.66 1012.32 1013.15 1014.35 1015.23 1015.70 1016.29 1016.86 1017.73 1018.92 1020.13 1021.24 1022.10 1022.85 1023.38 1024.12 1024.70 1025.16 1025.57 1026.00 1026.47 1026.39 1026.71 1026.54 1026.73 1027.22 1028.04 1028.73 1029.25 1029.60 1029.69 1029.82 1029.74 1029.54 1029.44 1029.07 1029.06 1028.66 1028.41 1028.18 1027.76 1026.85
1015.21 1015.33 1015.16 1015.18 1015.05 1014.93 1014.56 1014.06 1011.99 1013.24 1013.16 1013.84 1014.71 1015.43 1016.09 1016.89 1017.83 1018.76 1019.94 1020.90 1021.90 1022.85 1023.67 1024.35 1024.76 1025.24 1025.54 1026.03 1026.15 1026.49 1026.64 1026.86 1027.81 1028.47 1029.19 1029.59 1029.93 1030.01 1030.13 1030.09 1029.90 1029.69 1029.30 1029.22 1029.22 1028.97 1028.82 1028.34 1028.03
1016.17 1015.89 1016.00 1015.89 1015.65 1014.86 1014.16 1014.07 1011.69 1012.56 1013.65 1013.86 1014.20 1014.67 1015.21 1016.19 1017.11 1018.16 1019.17 1020.18 1021.10 1022.36 1023.37 1023.95 1024.46 1024.81 1025.36 1025.92 1026.22 1026.43 1026.66 1027.19 1027.75 1028.40 1028.84 1029.24 1029.60 1029.95 1030.32 1030.16 1029.95 1029.80 1029.68 1029.62 1029.34 1029.30 1029.01 1028.87 1028.55
1016.18 1015.88 1015.67 1015.72 1015.63 1014.84 1015.23 1014.50 1012.65 1013.59 1014.09 1014.44 1014.62 1014.73 1015.05 1015.77 1016.79 1017.75 1018.62 1019.48 1020.35 1021.47 1022.49 1023.36 1024.00 1024.39 1025.18 1025.77 1026.24 1026.55 1026.84 1027.44 1027.81 1028.31 1028.59 1029.13 1029.39 1029.58 1029.97 1029.96 1029.91 1029.78 1029.93 1029.86 1029.73 1029.48 1029.15 1028.78 1028.87
1016.12 1016.01 1015.88 1015.63 1015.51 1015.26 1015.84 1014.08 1013.71 1014.17 1014.46 1014.93 1015.05 1015.20 1015.61 1016.13 1016.87 1017.57 1018.20 1018.92 1019.66 1020.77 1021.89 1022.79 1023.44 1023.92 1024.70 1025.49 1025.98 1026.53 1027.02 1027.41 1027.84 1028.28 1028.64 1029.00 1029.28 1029.52 1030.15 1030.17 1030.10 1030.06 1030.01 1029.89 1029.75 1029.29 1029.21 1029.04 1028.92
1016.62 1016.68 1016.85 1016.71 1017.25 1016.45 1014.90 1014.32 1014.32 1014.36 1014.44 1014.78 1015.10 1015.51 1015.98 1016.62 1017.14 1017.58 1017.99 1018.48 1019.24 1020.31 1021.23 1022.20 1022.88 1023.48 1024.49 1025.22 1026.16 1026.78 1027.23 1027.65 1028.05 1028.65 1029.00 1029.15 1029.62 1029.84 1030.19 1030.32 1030.25 1030.12 1030.04 1029.96 1029.83 1029.16 1029.28 1029.20 1028.83
1017.18 1017.52 1017.52 1017.52 1017.32 1016.26 1014.94 1014.31 1013.44 1014.29 1014.61 1015.08 1015.55 1016.05 1016.62 1017.03 1017.59 1017.88 1018.19 1018.54 1019.13 1019.77 1020.61 1021.73 1022.46 1023.26 1024.55 1025.69 1026.36 1027.03 1027.48 1027.91 1028.43 1028.87 1029.12 1029.50 1029.70 1029.94 1030.10 1030.16 1030.10 1029.94 1029.76 1029.65 1029.53 1029.10 1028.87 1028.88 1028.61
1017.90 1017.74 1018.19 1018.02 1017.84 1016.80 1015.60 1014.49 1014.73 1014.62 1015.11 1015.58 1016.12 1016.91 1017.57 1017.98 1018.42 1018.58 1018.85 1019.19 1019.67 1020.23 1020.87 1022.07 1022.87 1023.66 1025.18 1026.05 1026.63 1027.35 1027.82 1028.30 1028.79 1029.04 1029.36 1029.59 1029.85 1029.95 1029.96 1029.93 1029.88 1029.63 1029.38 1029.26 1029.12 1028.98 1028.72 1028.48 1028.39
1018.05 1017.94 1018.21 1018.31 1018.25 1017.84 1017.03 1015.64 1015.55 1015.50 1016.04 1016.53 1016.83 1017.61 1018.49 1019.19 1019.63 1019.95 1020.13 1020.37 1020.72 1021.26 1021.86 1022.82 1023.56 1024.69 1025.43 1026.30 1027.00 1027.75 1028.25 1028.65 1029.01 1029.27 1029.49 1029.70 1029.90 1029.98 1029.96 1029.79 1029.58 1029.28 1028.96 1028.70 1028.51 1028.38 1028.29 1028.05 1027.74
Wind_Speed
8 3 3 5 4 4 10 7 5 11 7 8 7 8 15 10 8 9 5 6 5 8 6 11 10 11 11 12 12 12 13 12 10 10 11 12 12 12 12 13 13 13 12 11 10 9 9 9 10
6 4 4 3 1 8 6 3 13 7 11 14 12 11 9 7 6 8 4 6 6 7 9 11 12 12 12 12 13 12 13 12 11 10 11 11 13 13 13 13 12 12 11 10 8 8 7 6 6
6 2 3 3 4 7 9 5 10 12 8 5 6 9 7 8 6 4 4 3 7 10 9 11 11 12 14 13 13 13 13 13 10 9 11 13 14 15 16 15 14 13 12 12 9 9 9 10 9
3 4 3 7 13 7 10 13 10 10 6 1 12 11 8 2 2 4 6 5 7 8 9 11 11 13 14 14 14 13 13 12 14 15 16 15 16 16 16 16 16 15 14 13 12 12 11 10 9
1 3 3 8 12 8 11 13 10 5 5 8 3 9 10 7 7 8 7 7 6 7 6 10 11 13 14 14 14 13 13 13 14 15 15 16 15 16 17 16 16 16 15 15 14 14 13 12 12
3 4 5 6 7 5 6 7 6 5 9 7 11 13 8 8 8 7 8 7 7 7 6 7 11 13 15 15 15 15 15 15 14 15 15 16 16 16 16 16 15 15 16 15 15 14 13 12 13
1 3 4 13 13 9 8 5 4 8 10 7 10 8 8 10 8 9 8 8 8 7 7 7 7 8 12 14 14 14 15 15 15 15 13 14 14 16 15 16 16 15 14 14 13 13 13 12 12
0 1 11 9 15 9 9 6 6 8 6 6 8 6 9 12 11 9 8 9 8 8 7 7 7 8 8 9 12 14 14 13 15 14 12 7 9 8 16 13 17 16 16 15 14 13 12 9 8
2 5 6 11 16 12 12 10 6 4 9 5 4 2 11 16 12 9 8 8 7 7 6 7 7 7 6 7 8 8 10 9 6 9 9 5 9 10 12 15 15 17 14 14 14 14 12 11 8
6 3 7 5 7 16 17 12 12 10 11 7 7 6 15 15 12 8 5 5 5 5 6 6 6 7 6 6 6 7 7 9 9 9 9 8 9 9 8 9 8 11 11 6 4 7 10 10 8
4 4 7 5 4 17 15 11 9 11 13 10 14 17 16 13 10 7 5 4 5 6 5 6 7 7 6 6 4 4 5 5 6 10 9 9 8 7 7 6 8 9 12 9 9 10 9 11 9
7 7 5 7 11 12 14 12 8 13 7 7 12 17 16 14 11 8 5 7 7 7 7 7 7 6 7 5 5 5 6 6 7 8 9 7 6 8 8 7 9 8 8 11 10 7 9 10 11
14 9 10 11 9 9 8 10 6 10 4 12 16 15 15 13 10 6 6 6 7 8 7 7 7 6 6 6 6 6 7 7 8 9 10 8 8 8 8 8 9 9 10 10 10 9 9 9 10
11 14 14 9 10 7 6 5 6 7 12 13 14 15 14 12 11 8 7 8 8 9 8 8 7 7 7 8 7 6 6 7 8 8 9 10 9 8 8 9 9 9 10 10 10 9 9 8 8
19 18 12 8 9 6 5 9 9 14 13 14 14 13 12 11 9 8 7 8 9 9 9 8 8 7 7 8 7 6 6 7 7 7 9 9 9 8 8 8 9 9 9 11 9 10 9 8 7
11 11 10 10 9 7 7 9 8 16 17 15 14 12 12 13 12 9 8 9 10 9 10 9 7 8 6 7 6 6 6 6 6 5 6 7 8 8 7 7 8 8 8 9 9 9 9 8 8
9 10 6 12 9 4 10 1 10 16 16 15 15 14 14 13 12 10 10 10 10 10 11 10 8 8 8 7 5 5 5 4 4 4 4 6 6 7 6 7 7 8 7 7 9 9 9 9 9
10 11 7 10 13 10 11 13 8 15 17 17 16 15 15 15 16 13 12 10 11 11 11 9 9 9 8 6 5 4 4 4 2 3 4 3 4 5 6 6 7 7 8 8 9 10 9 9 9
10 10 11 11 6 11 13 13 12 16 18 18 18 17 16 16 15 14 12 12 12 12 12 11 10 11 9 7 6 5 5 4 3 4 5 4 5 6 7 6 7 8 7 8 9 9 10 8 9
10 10 8 5 7 8 8 15 15 16 20 19 18 17 18 16 16 15 16 15 14 14 13 12 12 12 10 7 5 3 4 3 4 4 6 6 6 6 6 7 6 8 7 8 9 11 9 8 8
7 10 10 2 8 8 8 17 17 16 18 17 19 18 17 18 19 18 18 17 15 15 15 13 13 13 12 8 6 5 4 4 5 4 4 6 6 7 7 7 6 6 6 7 9 10 11 9 8
7 5 8 10 12 3 5 5 7 8 12 18 17 18 18 18 18 19 19 18 17 16 14 14 13 12 11 11 9 10 7 6 3 4 5 5 5 6 6 7 7 7 6 8 8 8 9 9 9
6 4 6 7 5 5 10 7 6 5 5 5 12 18 20 20 20 21 21 20 19 16 15 13 13 12 12 10 10 8 8 4 5 5 6 5 4 6 6 5 6 6 6 7 8 8 8 7 7
11 9 6 3 3 7 1 6 4 5 6 5 5 6 13 20 21 20 19 19 17 15 15 14 14 14 12 10 10 10 7 7 6 6 5 3 2 2 3 5 5 6 6 7 6 7 6 7 7
7 8 3 5 5 3 3 5 6 5 6 6 8 7 3 12 17 18 19 19 18 19 18 15 15 14 13 11 10 9 8 8 7 7 4 4 3 1 2 4 5 5 5 6 6 7 7 6 7
11 7 5 5 4 2 3 6 5 5 5 4 6 8 6 4 10 16 18 18 19 19 19 17 16 15 14 12 10 8 7 5 5 5 4 2 1 1 3 4 5 6 6 6 6 6 6 5 6
6 8 2 1 1 4 4 4 5 4 8 7 10 12 12 5 4 9 14 17 17 17 18 18 17 16 14 12 8 8 8 7 5 6 4 3 0 0 3 5 6 6 6 6 7 5 6 6 6
3 4 4 1 2 5 4 5 2 7 8 9 11 12 11 9 4 2 6 11 14 15 16 17 17 15 12 10 9 8 8 7 6 5 3 2 1 3 5 6 7 8 7 7 8 8 8 8 7
5 4 1 1 2 3 5 1 2 6 6 6 9 10 9 9 9 6 1 3 6 9 11 12 13 13 12 10 10 9 8 7 5 3 3 3 3 5 6 7 9 10 10 10 9 10 11 10 10
2 4 9 4 5 2 3 4 4 3 4 6 10 9 10 9 9 8 7 5 5 5 7 10 11 12 12 11 10 8 7 6 4 3 3 3 5 6 8 9 10 11 12 12 13 13 13 14 13
Wind_Direction
159 125 282 260 212 78 89 91 127 125 101 78 83 55 79 50 7 77 105 58 69 62 46 68 32 43 42 39 33 35 36 38 45 53 55 56 51 52 52 48 46 46 48 50 44 39 37 26 15
135 193 238 277 343 123 88 132 121 70 108 112 84 108 79 85 74 105 134 61 60 50 60 59 49 48 45 40 36 34 33 35 41 58 62 55 51 48 52 51 45 40 38 36 31 25 19 21 12
111 309 331 26 24 70 122 136 130 122 132 160 110 69 91 103 91 66 356 99 86 66 52 67 58 45 46 41 40 40 37 32 40 50 56 59 53 46 45 45 42 37 34 29 27 16 5 358 353
180 185 132 61 83 60 118 132 128 137 121 133 119 98 97 87 86 96 144 107 89 83 69 67 54 51 47 42 40 40 42 43 38 55 49 49 47 45 44 40 38 36 32 29 25 18 10 2 357
249 246 116 93 87 116 119 134 160 156 130 140 165 126 115 117 114 129 117 86 95 91 75 77 57 53 49 44 42 41 46 53 55 57 56 56 51 49 45 39 36 34 33 29 23 19 20 14 7
157 266 202 128 115 123 135 148 156 160 142 129 132 128 113 127 146 114 92 86 92 103 90 84 76 54 51 47 47 46 48 51 52 55 55 54 51 48 47 44 39 36 32 29 26 21 18 15 7
291 269 75 122 139 152 158 141 193 161 148 134 133 134 120 159 126 126 112 101 90 95 92 82 64 67 76 53 55 57 59 60 63 61 59 58 52 48 40 44 35 36 37 35 32 23 14 7 9
173 219 152 144 161 146 150 145 172 176 129 109 192 167 167 152 151 131 108 92 86 87 95 85 62 56 54 67 57 59 58 61 61 57 49 25 87 59 46 29 34 31 31 28 22 13 11 353 348
264 212 166 153 167 139 152 162 156 139 155 189 157 247 128 137 146 144 135 121 114 103 98 67 61 53 65 68 66 86 74 75 81 84 50 56 49 37 49 47 34 31 25 25 18 6 344 321 236
292 235 117 114 90 154 172 177 156 175 164 182 161 136 135 149 159 162 158 126 121 109 96 79 48 57 67 66 64 70 65 56 47 52 45 59 54 53 50 61 40 48 1 53 5 352 315 337 344
23 41 118 106 107 150 162 171 167 182 181 185 175 155 156 162 162 163 147 121 117 120 98 94 76 57 45 58 51 58 60 54 64 53 44 57 55 48 52 49 43 32 27 23 17 24 23 13 3
117 72 80 112 129 147 165 148 185 194 59 164 155 155 161 166 168 168 148 139 139 126 112 95 79 76 48 54 56 66 60 64 62 54 62 60 57 55 46 38 36 36 31 22 21 29 23 21 23
97 94 108 125 140 148 138 182 183 191 119 137 143 161 169 171 167 148 139 136 136 132 127 117 100 85 81 71 76 67 72 68 72 69 51 49 54 52 44 42 38 34 28 25 23 17 25 21 39
126 120 119 137 132 143 210 165 212 142 145 148 160 173 175 177 168 157 164 153 159 138 141 133 119 98 90 88 82 94 88 98 80 68 56 55 49 41 42 39 35 34 28 26 21 18 8 17 17
127 123 131 148 153 143 215 197 218 145 166 168 181 183 180 181 173 176 172 162 155 155 144 149 135 120 104 108 106 95 90 93 87 84 65 56 45 52 40 38 28 22 21 14 22 10 18 12 1
139 160 164 161 177 146 231 166 141 164 177 185 190 187 187 186 188 173 173 170 163 153 162 161 148 143 132 110 113 106 106 96 89 82 75 55 47 34 35 31 27 8 17 12 5 5 359 5 0
198 171 197 164 199 169 230 342 154 178 191 191 196 195 196 191 194 182 180 177 172 164 170 173 168 164 157 141 122 114 124 102 90 78 67 48 43 27 10 23 22 355 11 15 359 354 354 349 353
179 175 193 181 184 215 215 253 171 191 200 204 202 203 203 202 197 188 186 179 181 170 177 179 185 177 173 159 169 148 139 122 93 69 50 13 40 21 1 30 22 7 13 8 360 350 351 337 347
176 190 187 188 138 212 233 253 212 199 209 211 211 208 207 207 196 183 188 183 186 171 182 189 184 180 180 184 184 167 156 140 118 66 44 56 34 33 21 27 15 0 20 7 356 346 343 345 355
170 184 165 138 155 215 251 260 252 205 218 218 218 218 213 208 197 185 188 192 194 180 188 187 192 183 194 191 193 193 158 126 88 88 80 74 69 52 53 20 19 9 356 5 359 352 346 345 1
193 210 173 192 166 223 275 261 240 227 217 224 227 228 218 210 203 194 195 196 193 190 192 193 191 187 195 196 179 172 147 163 169 139 100 68 60 53 44 39 22 7 360 4 356 359 354 342 349
194 199 192 159 189 229 212 295 200 177 215 228 230 226 225 210 208 199 197 196 197 196 192 198 193 192 194 197 200 201 202 193 129 128 97 92 67 56 43 32 23 16 5 7 358 6 350 350 342
39 171 176 177 220 268 180 255 119 168 199 207 220 230 222 217 207 204 198 197 198 192 193 195 193 195 194 193 213 199 225 164 158 136 135 101 83 56 42 26 20 16 9 10 2 357 358 345 337
140 142 131 166 240 255 70 259 137 97 350 321 323 278 230 213 209 206 201 199 196 190 193 194 196 195 190 196 199 210 203 180 171 165 165 144 109 110 41 21 15 13 3 3 350 343 342 346 334
206 193 206 218 209 258 133 225 321 10 28 350 346 351 250 210 211 206 202 200 199 192 193 192 196 194 188 192 194 199 189 188 182 175 173 177 178 189 59 1 6 359 357 346 340 329 327 339 330
203 240 219 261 225 110 175 235 115 51 51 64 46 49 55 183 206 215 213 205 202 198 196 194 194 195 186 191 189 180 173 178 170 176 152 177 232 9 14 350 342 335 330 331 330 317 321 327 323
167 218 34 154 81 270 232 227 167 139 81 80 61 54 54 63 182 213 220 214 209 203 199 193 196 195 187 181 167 163 162 162 150 144 163 174 139 42 317 320 315 310 306 314 315 312 308 311 308
275 97 187 174 206 245 219 262 152 144 91 77 50 32 28 37 49 224 225 218 217 210 198 196 197 190 171 162 159 153 150 145 145 156 173 198 236 280 300 301 302 301 295 295 302 305 304 305 307
157 183 100 164 280 276 290 233 81 127 86 59 24 22 24 25 22 20 8 221 212 216 207 187 191 167 156 154 140 141 139 138 148 167 187 227 267 273 287 304 306 304 301 300 295 297 295 287 298
280 244 218 210 194 237 301 264 165 105 78 6 358 12 23 31 36 42 53 75 104 157 167 176 156 151 144 135 132 130 134 142 161 208 236 252 274 285 295 304 308 310 306 301 301 294 293 291 289